Mitchell, SD

6:19 PM CST on November 21, 2019 (GMT -0600)
Mitchell Municipal

Weather History for KMHE - July, 2019

Change the Weather History Date:

Tuesday, July 23, 2019

  Actual Average Record
Temperature  
Mean Temperature 71 °F 75 °F  
Max Temperature 82 °F 87 °F 109 °F (2005)
Min Temperature 59 °F 63 °F 46 °F (1904)
Degree Days  
Heating Degree Days 0 0  
Month to date heating degree days 0 0  
Since 1 June heating degree days 16 35  
Since 1 July heating degree days 0 0  
Cooling Degree Days 6 10  
Month to date cooling degree days 289 228  
Year to date cooling degree days 500 438  
Since 1 June cooling degree days 481 398  
Growing Degree Days 20 (Base 50)    
Moisture  
Dew Point 57 °F    
Average Humidity 66    
Maximum Humidity 93    
Minimum Humidity 39    
Precipitation  
Precipitation 0.00 in 0.10 in 0.79 in (1981)
Month to date precipitation 4.30 2.37  
Year to date precipitation 18.76 13.23  
Snow  
Snow 0.00 in - 0.00 in ()
Month to date snowfall 0.0  
Since 1 June snowfall 0.0  
Since 1 July snowfall 0.0  
Snow Depth 0.00 in    
Sea Level Pressure  
Sea Level Pressure 30.25 in    
Wind  
Wind Speed 4 mph (ESE)    
Max Wind Speed 12 mph    
Max Gust Speed 17 mph    
Visibility 9 miles    
Events      
T = Trace of Precipitation, MM = Missing Value Source: NWS Daily Summary

Daily Weather History Graph

Daily Weather History Graph

Search for Another Location

Airport or City:

Astronomy

Jul. 23, 2019 Rise Set
Actual Time 6:11 AM CDT 9:05 PM CDT
Civil Twilight 5:37 AM CDT 9:39 PM CDT
Nautical Twilight 4:54 AM CDT 10:21 PM CDT
Astronomical Twilight 4:03 AM CDT 11:12 PM CDT
Moon 12:17 AM CDT (7/23) 12:37 PM CDT (7/23)
Length of Visible Light 16h 01m
Length of Day
14h 53m
Waning Gibbous, 63% of the Moon is Illuminated
Jul 23
Waning Gibbous
Jul 24
Last Quarter
Jul 31
New
Aug 7
First Quarter
Aug 15
Full

Hourly Weather History & Observations

Time (CDT) Temp. Heat Index Dew Point Humidity Pressure Visibility Wind Dir Wind Speed Gust Speed Precip Events Conditions
12:53 AM 63.0 °F - 59.0 °F 87% 30.29 in 10.0 mi Calm Calm - N/A   Clear
1:53 AM 64.9 °F - 59.0 °F 81% 30.29 in 10.0 mi Calm Calm - N/A   Clear
2:53 AM 62.1 °F - 59.0 °F 90% 30.28 in 10.0 mi Calm Calm - N/A   Clear
3:53 AM 62.1 °F - 57.9 °F 86% 30.28 in 10.0 mi Calm Calm - N/A   Clear
4:53 AM 59.0 °F - 57.0 °F 93% 30.27 in 7.0 mi Calm Calm - N/A   Clear
5:53 AM 60.1 °F - 57.9 °F 93% 30.27 in 10.0 mi Calm Calm - N/A   Clear
6:13 AM 59.0 °F - 57.0 °F 93% 30.29 in 0.8 mi SSE 3.5 mph - N/A   Clear
6:28 AM 60.1 °F - 57.9 °F 93% 30.29 in 3.0 mi SSE 3.5 mph - N/A   Clear
6:53 AM 60.1 °F - 57.0 °F 90% 30.28 in 3.0 mi Calm Calm - N/A   Clear
7:53 AM 64.0 °F - 60.1 °F 87% 30.29 in 5.0 mi Calm Calm - N/A   Clear
8:53 AM 69.1 °F - 61.0 °F 75% 30.30 in 8.0 mi Calm Calm - N/A   Clear
9:53 AM 73.9 °F - 55.9 °F 53% 30.30 in 10.0 mi Calm Calm - N/A   Clear
10:53 AM 75.9 °F - 54.0 °F 46% 30.28 in 10.0 mi Variable 4.6 mph - N/A   Clear
11:53 AM 78.1 °F - 54.0 °F 43% 30.27 in 10.0 mi NNE 5.8 mph - N/A   Clear
12:53 PM 78.1 °F - 55.0 °F 45% 30.26 in 10.0 mi East 6.9 mph - N/A   Clear
1:53 PM 80.1 °F 80.1 °F 55.0 °F 42% 30.25 in 10.0 mi NE 5.8 mph - N/A   Clear
2:53 PM 80.1 °F 80.1 °F 55.0 °F 42% 30.23 in 10.0 mi Variable 5.8 mph - N/A   Clear
3:53 PM 81.0 °F 80.5 °F 54.0 °F 39% 30.22 in 10.0 mi East 4.6 mph - N/A   Clear
4:53 PM 81.0 °F 80.7 °F 55.0 °F 41% 30.20 in 10.0 mi Variable 4.6 mph - N/A   Clear
5:53 PM 80.1 °F 79.9 °F 53.1 °F 39% 30.19 in 10.0 mi Calm Calm - N/A   Clear
6:53 PM 79.0 °F - 53.1 °F 40% 30.17 in 10.0 mi ESE 5.8 mph - N/A   Clear
7:53 PM 79.0 °F - 55.0 °F 44% 30.17 in 10.0 mi East 4.6 mph - N/A   Clear
8:53 PM 73.0 °F - 59.0 °F 61% 30.17 in 10.0 mi ESE 3.5 mph - N/A   Clear
9:53 PM 68.0 °F - 60.1 °F 76% 30.18 in 10.0 mi ESE 5.8 mph - N/A   Clear
10:53 PM 66.9 °F - 57.9 °F 73% 30.18 in 10.0 mi SE 6.9 mph - N/A   Clear
11:53 PM 66.9 °F - 57.9 °F 73% 30.17 in 10.0 mi SE 8.1 mph - N/A   Clear